Location: Arapaho Elementary School
(32.9607°N, 96.7625°W)
Time: 13:48:46
(UTC+00:00)

Cosmos 1500 Rocket - Pass Details

Date: 05 July 2022
Orbit: 601 x 632 km, 82.5° (Epoch: 18 August)

Event Time Altitude Azimuth Distance (km) Brightness Sun altitude
Exits shadow 08:27:37 22° 103° (ESE) 1,358 5.4 -27.8°
Maximum altitude 08:28:17 23° 89° (E) 1,329 5.5 -27.7°
Drops below altitude 10° 08:31:48 10° 37° (NE) 2,011 7.2 -27.3°
Sets 08:34:24 0° 23° (NNE) 2,925 8.3 -27.1°
